GW5883 Weather Reports


time (UTC)temp
F
wind
direction
speed
knots
gust
knots
rain 1hr
in
rain 24hr
in
rain mn
in
humidity
%
barometer
mb
20260906124225 74 143 0.0 0.0 0.00 0.00 0.00 92 1017.3
20260906123724 74 146 0.0 0.0 0.00 0.00 0.00 93 1017.1
20260906123219 73 143 0.0 0.0 0.00 0.00 0.00 93 1017.0
20260906122718 73 143 0.0 0.0 0.00 0.00 0.00 93 1016.9
20260906122214 73 143 0.0 0.0 0.00 0.00 0.00 93 1016.9
20260906121710 73 140 0.0 0.0 0.00 0.00 0.00 93 1016.6
20260906121206 73 143 0.0 0.0 0.00 0.00 0.00 92 1016.6
20260906120702 73 143 0.0 0.0 0.00 0.00 0.00 92 1016.5
20260906120200 73 143 0.0 0.0 0.00 0.00 0.00 92 1016.4
20260906115700 73 146 0.0 0.0 0.00 0.00 0.00 92 1016.5
20260906115155 73 146 0.0 0.0 0.00 0.00 0.00 92 1016.4
20260906114653 73 142 0.0 0.0 0.00 0.00 0.00 92 1016.2
20260906114149 73 145 0.0 0.0 0.00 0.00 0.00 92 1016.3
20260906113643 73 145 0.0 0.0 0.00 0.00 0.00 92 1016.1
20260906113138 73 145 0.0 0.0 0.00 0.00 0.00 92 1015.9
20260906112637 73 146 0.0 0.0 0.00 0.00 0.00 92 1016.0
20260906112135 73 146 0.0 0.0 0.00 0.00 0.00 92 1016.0
20260906111634 73 145 0.0 0.0 0.00 0.00 0.00 92 1016.2
20260906111129 73 146 0.0 0.0 0.00 0.00 0.00 92 1016.0
20260906110624 73 143 0.0 0.0 0.00 0.00 0.00 92 1015.9
20260906110123 73 143 0.0 0.0 0.00 0.00 0.00 92 1015.8
20260906105618 73 145 0.0 0.0 0.00 0.00 0.00 91 1015.9
20260906105114 74 146 0.0 0.0 0.00 0.00 0.00 91 1015.6
20260906104613 74 144 0.0 0.0 0.00 0.00 0.00 91 1015.7
20260906104107 74 145 0.0 0.0 0.00 0.00 0.00 90 1015.4
20260906103606 74 145 0.0 0.0 0.00 0.00 0.00 90 1015.7
20260906103101 74 147 0.0 0.0 0.00 0.00 0.00 90 1015.6
20260906102555 74 147 0.0 0.0 0.00 0.00 0.00 89 1015.5
20260906102051 74 141 0.0 0.0 0.00 0.00 0.00 89 1015.4
20260906101550 75 146 0.0 0.0 0.00 0.00 0.00 89 1015.4
20260906101045 75 143 0.0 0.0 0.00 0.00 0.00 88 1015.3
20260906100541 75 144 0.0 0.0 0.00 0.00 0.00 88 1015.1
20260906100036 75 143 0.0 0.0 0.00 0.00 0.00 87 1015.2
20260906095536 75 137 0.0 0.0 0.00 0.00 0.00 87 1015.4
20260906095031 75 140 0.0 0.0 0.00 0.00 0.00 87 1015.3
20260906094530 75 142 0.0 0.0 0.00 0.00 0.00 86 1015.3
20260906094026 75 146 0.0 0.0 0.00 0.00 0.00 86 1015.4
20260906093522 76 146 0.0 0.0 0.00 0.00 0.00 86 1015.2
20260906093022 76 154 0.0 0.0 0.00 0.00 0.00 86 1015.3
20260906092516 76 143 0.0 0.0 0.00 0.00 0.00 85 1015.2
20260906092012 76 148 0.0 0.0 0.00 0.00 0.00 85 1014.9
20260906091508 76 145 0.0 0.0 0.00 0.00 0.00 85 1015.0
20260906091004 76 148 0.0 0.0 0.00 0.00 0.00 84 1015.1
20260906090459 76 146 0.0 0.0 0.00 0.00 0.00 84 1015.1
20260906085959 76 161 0.0 0.0 0.00 0.00 0.00 84 1015.1
20260906085458 76 152 0.0 0.0 0.00 0.00 0.00 84 1015.0
20260906084957 77 139 0.0 0.0 0.00 0.00 0.00 84 1014.9
20260906084452 77 165 0.0 0.0 0.00 0.00 0.00 83 1015.0
20260906083951 77 116 0.0 0.0 0.00 0.00 0.00 83 1015.0
20260906083447 77 144 0.0 0.0 0.00 0.00 0.00 83 1014.8
20260906082946 77 148 0.0 0.0 0.00 0.00 0.00 83 1015.0
20260906082441 77 145 0.0 0.0 0.00 0.00 0.00 83 1015.0
20260906081937 77 157 0.0 0.0 0.00 0.00 0.00 83 1014.8
20260906081432 77 145 0.0 0.0 0.00 0.00 0.00 82 1015.0
20260906080928 77 154 0.0 0.0 0.00 0.00 0.00 83 1014.8
20260906080425 77 144 0.0 0.0 0.00 0.00 0.00 82 1014.9
20260906075925 77 120 0.0 0.9 0.00 0.00 0.00 82 1014.9
20260906075420 77 137 0.0 0.0 0.00 0.00 0.00 82 1015.1
20260906074915 77 109 0.0 0.0 0.00 0.00 0.00 82 1014.9
20260906074414 77 143 0.0 0.0 0.00 0.00 0.00 82 1015.1
20260906073913 77 149 0.0 0.0 0.00 0.00 0.00 82 1014.9
20260906073408 77 149 0.0 0.0 0.00 0.00 0.00 81 1015.1
20260906072905 77 146 0.0 0.0 0.00 0.00 0.00 81 1015.1
20260906072400 77 158 0.0 0.9 0.00 0.00 0.00 81 1015.2
20260906071856 78 143 0.0 0.0 0.00 0.00 0.00 81 1015.1
20260906071351 78 143 0.0 0.0 0.00 0.00 0.00 80 1015.2
20260906070847 78 147 0.0 0.0 0.00 0.00 0.00 80 1015.1
20260906070343 78 145 0.0 0.0 0.00 0.00 0.00 80 1015.3
20260906065838 78 148 0.0 0.0 0.00 0.00 0.00 80 1015.2
20260906065332 78 153 0.0 0.0 0.00 0.00 0.00 80 1015.3
20260906064828 78 155 0.0 0.0 0.00 0.00 0.00 80 1015.1
20260906064325 78 143 0.0 0.0 0.00 0.00 0.00 79 1015.2
20260906063824 78 148 0.0 0.0 0.00 0.00 0.00 80 1015.3
20260906063320 78 160 0.0 0.9 0.00 0.00 0.00 80 1015.3
20260906062815 78 160 0.0 0.9 0.00 0.00 0.00 80 1015.5
20260906062314 78 174 0.0 0.9 0.00 0.00 0.00 82 1015.5
20260906061810 78 148 0.9 0.9 0.00 0.00 0.00 84 1015.4
20260906061306 77 146 0.0 0.0 0.00 0.00 0.00 84 1015.6
20260906060801 77 141 0.0 0.0 0.00 0.00 0.00 85 1015.8
20260906060258 77 162 0.0 0.0 0.00 0.00 0.00 85 1015.7
20260906055754 77 150 0.0 0.0 0.00 0.00 0.00 86 1015.8
20260906055249 77 144 0.0 0.0 0.00 0.00 0.00 86 1015.8
20260906054744 77 142 0.0 0.0 0.00 0.00 0.00 85 1015.7
20260906054240 78 145 0.0 0.0 0.00 0.00 0.00 85 1015.9
20260906053736 78 144 0.0 0.0 0.00 0.00 0.00 84 1015.9
20260906053232 78 143 0.0 0.0 0.00 0.00 0.00 84 1015.7
20260906052726 78 155 0.0 0.0 0.00 0.00 0.00 84 1015.8
20260906052223 78 141 0.0 0.0 0.00 0.00 0.00 84 1015.7
20260906051720 79 144 0.0 0.0 0.00 0.00 0.00 84 1015.9
20260906051219 79 132 0.0 0.0 0.00 0.00 0.00 83 1015.8
20260906050714 79 139 0.0 0.0 0.00 0.00 0.00 83 1015.7
20260906050209 79 147 0.0 0.0 0.00 0.00 0.00 82 1015.7
20260906045708 79 150 0.0 0.0 0.00 0.00 0.00 84 1015.6
20260906045203 79 94 0.9 0.9 0.00 0.00 0.00 84 1015.6
20260906044659 79 157 0.0 0.9 0.00 0.00 0.00 84 1015.9
20260906044154 79 97 0.9 0.9 0.00 0.00 0.00 84 1015.9
20260906043650 79 154 0.0 0.0 0.00 0.00 0.00 83 1015.8
20260906043146 79 127 0.0 0.0 0.00 0.00 0.00 83 1016.0
20260906042645 79 133 0.0 0.0 0.00 0.00 0.00 84 1015.8
20260906042144 79 145 0.0 0.0 0.00 0.00 0.00 85 1015.4
20260906041641 79 20 1.7 1.7 0.00 0.00 0.00 86 1015.7
20260906041135 79 131 0.0 0.0 0.00 0.00 0.00 86 1015.7
20260906040631 79 144 0.0 0.0 0.00 0.00 0.00 86 1015.5
20260906040127 79 147 0.0 0.0 0.00 0.00 0.00 86 1015.8
20260906035622 79 146 0.0 0.0 0.00 0.00 0.00 86 1015.7
20260906035117 79 141 0.0 0.0 0.00 0.00 0.00 87 1015.7
20260906034617 79 139 0.0 0.0 0.00 0.00 0.00 85 1015.7
20260906034112 80 138 0.0 0.0 0.00 0.00 0.00 85 1015.9
20260906033608 80 143 0.0 0.0 0.00 0.00 0.00 84 1015.5
20260906033103 80 148 0.0 0.0 0.00 0.00 0.00 84 1015.6
20260906032600 80 148 0.0 0.0 0.00 0.00 0.00 85 1015.6
20260906032059 80 149 0.0 0.0 0.00 0.00 0.00 84 1015.5
20260906031555 80 147 0.0 0.0 0.00 0.00 0.00 83 1015.7
20260906031050 80 143 0.0 0.0 0.00 0.00 0.00 82 1015.6
20260906030549 80 143 0.0 0.0 0.00 0.00 0.00 82 1015.4
20260906030050 80 143 0.0 0.0 0.00 0.00 0.00 84 1015.4
20260906025549 80 143 0.0 0.0 0.00 0.00 0.00 84 1015.1
20260906025048 80 136 0.0 0.0 0.00 0.00 0.00 85 1015.0
20260906024543 80 132 0.0 0.0 0.00 0.00 0.00 85 1015.0
20260906024043 80 127 0.0 0.0 0.00 0.00 0.00 85 1014.8
20260906023539 80 145 0.0 0.0 0.00 0.00 0.00 84 1014.7
20260906023034 80 147 0.0 0.0 0.00 0.00 0.00 85 1014.6
20260906022529 80 146 0.0 0.0 0.00 0.00 0.00 85 1014.7
20260906022024 80 146 0.0 0.0 0.00 0.00 0.00 84 1014.7
20260906021520 80 146 0.0 0.0 0.00 0.00 0.00 83 1014.4
20260906021014 81 146 0.0 0.0 0.00 0.00 0.00 83 1014.2
20260906020513 81 147 0.0 0.0 0.00 0.00 0.00 84 1014.2
20260906020013 81 148 0.0 0.0 0.00 0.00 0.00 83 1014.3
20260906015513 81 146 0.0 0.0 0.00 0.00 0.00 83 1014.2
20260906015012 82 148 0.0 0.0 0.00 0.00 0.00 83 1014.2
20260906014507 82 146 0.0 0.0 0.00 0.00 0.00 82 1014.4
20260906014003 82 146 0.0 0.0 0.00 0.00 0.00 82 1014.2
20260906013458 82 146 0.0 0.0 0.00 0.00 0.00 81 1014.2
20260906012954 82 154 0.0 0.0 0.00 0.00 0.00 81 1014.1
20260906012448 82 147 0.0 0.0 0.00 0.00 0.00 81 1014.1
20260906011947 83 144 0.0 0.0 0.00 0.00 0.00 80 1014.1
20260906011443 83 147 0.0 0.0 0.00 0.00 0.00 79 1014.0
20260906010938 83 147 0.0 0.0 0.00 0.00 0.00 79 1014.0
20260906010433 83 147 0.0 0.0 0.00 0.00 0.00 78 1014.1
20260906005930 84 147 0.0 0.0 0.00 0.00 0.00 77 1014.0
20260906005429 84 147 0.0 0.0 0.00 0.00 0.00 76 1014.1
20260906004928 84 148 0.0 0.0 0.00 0.00 0.00 74 1014.1
20260906004422 85 146 0.0 0.0 0.00 0.00 0.00 74 1014.3
20260906003918 85 146 0.0 0.0 0.00 0.00 0.00 72 1014.3
20260906003413 86 147 0.0 0.0 0.00 0.00 0.00 71 1014.3
20260906002908 86 144 0.0 0.0 0.00 0.00 0.00 73 1014.4
20260906002408 86 145 0.0 0.0 0.00 0.00 0.00 71 1014.4
20260906001903 87 146 0.0 0.0 0.00 0.00 0.00 69 1014.3
20260906001359 87 146 0.0 0.0 0.00 0.00 0.00 68 1014.2
20260906000859 88 144 0.0 0.0 0.00 0.00 0.00 68 1014.2
20260906000359 88 143 0.0 0.0 0.00 0.00 0.00 66 1014.2
20260905235855 89 144 0.0 0.0 0.00 0.00 0.00 67 1014.0
20260905235349 90 144 0.0 0.0 0.00 0.00 0.00 64 1014.2
20260905234844 90 144 0.0 0.0 0.00 0.00 0.00 63 1014.3
20260905234339 91 142 0.0 0.0 0.00 0.00 0.00 62 1014.1
20260905233834 92 145 0.0 0.0 0.00 0.00 0.00 59 1014.3
20260905233329 93 145 0.0 0.0 0.00 0.00 0.00 59 1014.4
20260905232828 93 147 0.0 0.0 0.00 0.00 0.00 59 1014.3
20260905232325 94 147 0.0 0.0 0.00 0.00 0.00 56 1014.3
20260905231820 94 141 0.0 0.0 0.00 0.00 0.00 55 1014.2
20260905231315 95 141 0.0 0.0 0.00 0.00 0.00 52 1014.1
20260905230812 96 150 0.0 0.0 0.00 0.00 0.00 50 1014.1
20260905230309 96 145 0.0 0.0 0.00 0.00 0.00 50 1014.1
20260905225809 96 143 0.0 0.0 0.00 0.00 0.00 46 1014.1
20260905225306 97 153 0.0 0.0 0.00 0.00 0.00 47 1014.1
20260905224803 97 144 0.0 0.0 0.00 0.00 0.00 46 1013.9
20260905224259 97 150 0.0 0.0 0.00 0.00 0.00 47 1014.0
20260905223755 97 111 0.0 0.9 0.00 0.00 0.00 45 1014.2
20260905223252 97 150 0.0 0.0 0.00 0.00 0.00 45 1014.0
20260905222747 97 120 0.0 0.0 0.00 0.00 0.00 45 1014.1
20260905222246 97 116 0.0 0.0 0.00 0.00 0.00 44 1013.9
20260905221742 98 134 0.9 0.9 0.00 0.00 0.00 44 1014.2
20260905221239 98 110 0.9 0.9 0.00 0.00 0.00 43 1014.3
20260905220734 98 112 0.9 0.9 0.00 0.00 0.00 43 1014.0
20260905220230 99 114 0.0 0.9 0.00 0.00 0.00 42 1014.2
20260905215729 99 158 0.0 0.0 0.00 0.00 0.00 42 1014.0
20260905215225 99 138 0.0 0.0 0.00 0.00 0.00 42 1014.0
20260905214721 99 172 0.9 0.9 0.00 0.00 0.00 42 1014.1
20260905214216 99 141 0.0 0.0 0.00 0.00 0.00 43 1014.2
20260905213712 99 143 0.0 0.0 0.00 0.00 0.00 44 1014.2
20260905213208 99 168 0.0 0.9 0.00 0.00 0.00 45 1014.4
20260905212702 99 147 0.0 0.0 0.00 0.00 0.00 44 1014.3
20260905212201 99 135 0.0 0.0 0.00 0.00 0.00 44 1014.2
20260905211656 99 133 0.0 0.0 0.00 0.00 0.00 44 1014.2
20260905211151 99 334 1.7 1.7 0.00 0.00 0.00 43 1014.2
20260905210649 99 52 1.7 1.7 0.00 0.00 0.00 43 1014.4
20260905210148 99 151 0.0 0.9 0.00 0.00 0.00 43 1014.4
20260905205647 99 139 0.9 1.7 0.00 0.00 0.00 42 1014.4
20260905205141 99 103 0.0 0.0 0.00 0.00 0.00 42 1014.4
20260905204640 100 89 0.9 1.7 0.00 0.00 0.00 40 1014.6
20260905204137 100 150 0.0 0.0 0.00 0.00 0.00 41 1014.5
20260905203636 100 151 0.0 0.0 0.00 0.00 0.00 40 1014.6
20260905203132 100 143 0.0 0.0 0.00 0.00 0.00 41 1014.8
20260905202627 100 178 0.0 0.9 0.00 0.00 0.00 42 1015.0
20260905202123 101 12 1.7 2.6 0.00 0.00 0.00 40 1015.0
20260905201618 101 161 0.0 0.0 0.00 0.00 0.00 42 1015.1
20260905201117 101 131 0.9 0.9 0.00 0.00 0.00 40 1015.1
20260905200613 101 44 1.7 1.7 0.00 0.00 0.00 39 1015.3
20260905200109 101 142 0.0 0.0 0.00 0.00 0.00 40 1015.0
20260905195602 101 152 0.0 0.9 0.00 0.00 0.00 40 1015.5
20260905195057 100 150 0.0 0.0 0.00 0.00 0.00 40 1015.2
20260905194557 100 125 1.7 1.7 0.00 0.00 0.00 39 1015.3
20260905194056 100 134 0.0 0.9 0.00 0.00 0.00 41 1015.3
20260905193551 100 216 1.7 2.6 0.00 0.00 0.00 42 1015.5
20260905193046 101 146 1.7 1.7 0.00 0.00 0.00 41 1015.7
20260905192542 100 105 0.0 0.0 0.00 0.00 0.00 43 1015.7
20260905192038 98 160 0.0 0.0 0.00 0.00 0.00 45 1015.9
20260905191536 98 129 0.0 0.0 0.00 0.00 0.00 43 1015.8
20260905191035 99 180 0.9 0.9 0.00 0.00 0.00 43 1015.8
20260905190534 99 76 0.9 0.9 0.00 0.00 0.00 44 1015.8
20260905190033 99 178 1.7 1.7 0.00 0.00 0.00 42 1015.7
20260905185533 101 197 0.9 0.9 0.00 0.00 0.00 41 1015.9
20260905185033 104 117 0.9 1.7 0.00 0.00 0.00 39 1015.9
20260905184533 104 116 0.0 0.9 0.00 0.00 0.00 39 1016.0
20260905184032 103 39 0.9 1.7 0.00 0.00 0.00 39 1016.2
20260905183531 102 132 0.9 1.7 0.00 0.00 0.00 40 1016.3
20260905183027 102 189 1.7 1.7 0.00 0.00 0.00 40 1016.4
20260905182521 102 148 0.0 0.9 0.00 0.00 0.00 40 1016.4
20260905182021 101 150 1.7 1.7 0.00 0.00 0.00 40 1016.5
20260905181516 100 168 0.9 1.7 0.00 0.00 0.00 42 1016.4
20260905181015 100 146 0.9 0.9 0.00 0.00 0.00 42 1016.9
20260905180510 99 187 0.0 0.9 0.00 0.00 0.00 41 1016.7
20260905180005 99 161 0.0 0.0 0.00 0.00 0.00 45 1016.7
20260905175504 99 73 0.9 1.7 0.00 0.00 0.00 43 1017.0
20260905175000 100 233 0.9 1.7 0.00 0.00 0.00 42 1016.9
20260905174455 101 144 0.9 0.9 0.00 0.00 0.00 42 1017.2
20260905173951 102 169 0.0 0.0 0.00 0.00 0.00 41 1017.1
20260905173447 101 130 0.0 0.0 0.00 0.00 0.00 42 1017.2
20260905172942 101 178 0.9 1.7 0.00 0.00 0.00 40 1017.1
20260905172440 101 348 1.7 1.7 0.00 0.00 0.00 42 1017.2
20260905171936 100 177 0.9 0.9 0.00 0.00 0.00 42 1017.2
20260905171432 100 323 0.9 1.7 0.00 0.00 0.00 44 1017.0
20260905170928 101 207 0.9 0.9 0.00 0.00 0.00 43 1017.2
20260905170424 102 27 0.9 1.7 0.00 0.00 0.00 41 1017.4
20260905165924 101 135 0.0 0.0 0.00 0.00 0.00 43 1017.2
20260905165419 99 155 0.0 0.0 0.00 0.00 0.00 43 1017.7
20260905164915 99 57 0.0 0.9 0.00 0.00 0.00 44 1017.6
20260905164415 98 142 0.0 0.9 0.00 0.00 0.00 46 1017.6
20260905163915 98 142 0.0 0.0 0.00 0.00 0.00 48 1017.7
20260905163412 98 201 2.6 2.6 0.00 0.00 0.00 46 1017.5
20260905162908 97 90 0.9 0.9 0.00 0.00 0.00 47 1017.6
20260905162402 97 132 0.0 0.9 0.00 0.00 0.00 48 1017.8
20260905161857 97 129 0.9 0.9 0.00 0.00 0.00 47 1017.6
20260905161356 97 16 1.7 1.7 0.00 0.00 0.00 48 1017.8
20260905160855 97 139 0.0 0.9 0.00 0.00 0.00 51 1017.8
20260905160354 95 82 0.0 0.9 0.00 0.00 0.00 49 1017.8
20260905155849 95 134 0.0 0.0 0.00 0.00 0.00 54 1017.9
20260905155348 95 20 1.7 1.7 0.00 0.00 0.00 52 1017.8
20260905154847 95 16 1.7 2.6 0.00 0.00 0.00 54 1017.9
20260905154343 93 76 0.9 0.9 0.00 0.00 0.00 56 1017.9
20260905153838 93 129 0.0 0.0 0.00 0.00 0.00 58 1017.8
20260905153335 93 119 0.9 0.9 0.00 0.00 0.00 55 1018.2
20260905152834 93 62 0.9 0.9 0.00 0.00 0.00 56 1017.9
20260905152334 92 132 0.9 0.9 0.00 0.00 0.00 57 1018.3
20260905151829 92 120 0.0 0.9 0.00 0.00 0.00 57 1018.3
20260905151325 92 141 0.0 0.0 0.00 0.00 0.00 61 1018.1
20260905150824 92 141 0.9 0.9 0.00 0.00 0.00 60 1018.3
20260905150319 92 137 0.0 0.9 0.00 0.00 0.00 60 1018.2
20260905145816 90 143 0.0 0.0 0.00 0.00 0.00 62 1018.2
20260905145310 89 135 0.0 0.0 0.00 0.00 0.00 63 1018.2
20260905144809 89 131 0.0 0.0 0.00 0.00 0.00 69 1018.2
20260905144305 89 136 0.0 0.0 0.00 0.00 0.00 69 1018.4
20260905143804 89 134 0.0 0.0 0.00 0.00 0.00 68 1018.4
20260905143258 89 145 0.0 0.0 0.00 0.00 0.00 70 1018.3
20260905142756 88 157 0.0 0.9 0.00 0.00 0.00 70 1018.5
20260905142251 87 151 0.0 0.9 0.00 0.00 0.00 71 1018.3
20260905141747 86 140 0.0 0.0 0.00 0.00 0.00 74 1018.3
20260905141244 85 152 0.0 0.0 0.00 0.00 0.00 75 1018.4
20260905140739 84 142 0.0 0.0 0.00 0.00 0.00 78 1018.4
20260905140239 83 138 0.0 0.0 0.00 0.00 0.00 78 1018.5
20260905135737 82 139 0.0 0.0 0.00 0.00 0.00 82 1018.5
20260905135234 81 139 0.0 0.0 0.00 0.00 0.00 85 1018.4
20260905134733 81 141 0.0 0.0 0.00 0.00 0.00 86 1018.3
20260905134232 80 142 0.0 0.0 0.00 0.00 0.00 87 1018.4
20260905133727 79 142 0.0 0.0 0.00 0.00 0.00 89 1018.4
20260905133223 79 141 0.0 0.0 0.00 0.00 0.00 89 1018.5
20260905132721 78 142 0.0 0.0 0.00 0.00 0.00 90 1018.4
20260905132217 78 142 0.0 0.0 0.00 0.00 0.00 90 1018.3
20260905131712 77 143 0.0 0.0 0.00 0.00 0.00 91 1018.4
20260905131208 77 142 0.0 0.0 0.00 0.00 0.00 91 1018.3
20260905130707 76 143 0.0 0.0 0.00 0.00 0.00 92 1018.3
20260905130202 76 143 0.0 0.0 0.00 0.00 0.00 93 1018.2
20260905125701 76 143 0.0 0.0 0.00 0.00 0.00 94 1018.5
20260905125157 75 144 0.0 0.0 0.00 0.00 0.00 95 1018.3
20260905124653 75 144 0.0 0.0 0.00 0.00 0.00 95 1018.4